www.pogodaiklimat.ru

Погода и климат >> Архив погоды >> Уоллис и Футуна >> Остров Увеа


ПОГОДА на Острове Увеа

  • Прогноз погоды на Острове Увеа
  • Монитор погоды на Острове Увеа

АРХИВ ПОГОДЫ на Острове Увеа

Время (UTC), дата Ветер
(напр.,м/с)
 
Видим.   Явления Облачность Т
(С)
Тd
(С)
f
(%)
Тe
(С)
Тes
(С)
Комфортность P
(гПа)
Po
(гПа)
Тmin
(С)
Tmax
(С)
R
(мм)
R24
(мм)
S
(см)
15 12.08 В 5
{9}
28 км н/о +27.1 +24.2 84 +38 +38 очень
душно
1012.5 1009.3
18 12.08 В 6
{10}
20 км 4/4 800 м
[Cu hum Ci fib]
+27.3 +23.8 81 +37 +37 очень
душно
1012.6 1009.4 +27.0 +28.0
21 12.08 В 6
{12}
20 км 4/4 750 м
[Cu hum Ci fib]
+29.6 +24.0 72 +41 +43 опасность
перегрева
1014.4 1011.2
00 13.08 В 7
{11}
40 км н/о +30.2 +23.9 69 +42 +42 опасность
перегрева
1013.4 1010.2
03 13.08 В 5
{10}
20 км 1/1 750 м
[Cu hum]
+30.1 +24.7 73 +43 +47 опасность
перегрева
1011.7 1008.6
06 13.08 ЮВ 3
{7}
19 км н/о +27.6 +23.2 77 +37 +37 очень
душно
1012.8 1009.6 +27.2 +30.6
09 13.08 ЮВ 2
{9}
35 км 8/8 300 м
[]
+25.9 +24.1 90 +36 +36 очень
душно
1014.2 1011.0 0.6
12 13.08 ЮВ 3
{6}
35 км 9/9 300 м
[]
+26.8 +24.3 86 +37 +37 очень
душно
1014.5 1011.3 0.0
15 13.08 В 4
{8}
50 км 10/10 600 м
[]
+26.0 +24.4 91 +36 +36 очень
душно
1013.5 1010.3 11
18 13.08 ЮВ 5
{10}
20 км 3/3 570 м
[Cu Sc]
+27.0 +23.0 79 +36 +36 очень
душно
1014.3 1011.1 +24.0 +27.6 0.0
21 13.08 ЮВ 5
{9}
20 км 3/3 700 м
[Cu hum]
+29.0 +24.1 75 +40 +44 очень
душно
1016.0 1012.8
00 14.08 ЮВ 6
{11}
45 км 9/9 600 м
[]
+29.7 +24.1 72 +41 +42 опасность
перегрева
1014.5 1011.3 0.0
03 14.08 ЮВ 5
{10}
20 км в посл. час дождь {ливн. осадки} 8/8 630 м
[Cu med, cong]
+28.8 +24.4 77 +40 +41 очень
душно
1012.4 1009.2 0.4
06 14.08 ЮВ 4
{9}
23 км н/о +27.4 +23.4 79 +37 +37 очень
душно
1013.3 1010.1 +26.9 +30.4 0.0
09 14.08 ЮВ 3
{7}
8000 м н/о +27.2 +23.0 78 +36 +36 очень
душно
1014.5 1011.3
12 14.08 ЮВ 4
{8}
13 км н/о +26.8 +22.4 77 +35 +35 очень
душно
1014.4 1011.2 0.0
15 14.08 ЮВ 4
{8}
18 км 8/8 600 м
[]
+26.7 +22.1 76 +35 +35 очень
душно
1012.8 1009.6
18 14.08 ЮВ 5
{9}
20 км 8/8 700 м
[Cu hum Ci fib]
+26.6 +20.7 70 +33 +33 очень
душно
1013.1 1009.9 +26.4 +27.5
21 14.08 ЮВ 6
{10}
20 км 5/3 900 м
[Cu hum As trans Ci fib]
+28.9 +22.9 70 +38 +41 очень
душно
1014.7 1011.5
00 15.08 В 6
{10}
30 км н/о +29.6 +23.3 69 +40 +40 очень
душно
1012.9 1009.7
03 15.08 ЮВ 5
{10}
20 км 4/4 750 м
[Cu med, cong]
+29.5 +23.4 70 +40 +42 очень
душно
1010.4 1007.2
06 15.08 ЮВ 4
{8}
45 км 10/10 600 м
[]
+27.0 +23.3 80 +36 +36 очень
душно
1011.7 1008.5 +26.5 +30.2 0.0
09 15.08 В 4
{8}
35 км 9/9 600 м
[]
+27.5 +22.7 75 +36 +36 очень
душно
1013.2 1010.0
12 15.08 В 4
{8}
35 км н/о +27.1 +22.5 76 +36 +36 очень
душно
1012.7 1009.5
15 15.08 В 5
{8}
35 км н/о +26.8 +22.2 76 +35 +35 очень
душно
1011.0 1007.8
18 15.08 ЮВ 5
{9}
20 км 4/3 750 м
[Cu med, cong Ac lent]
+26.5 +21.3 73 +34 +34 очень
душно
1011.9 1008.7 +26.5 +27.5
21 15.08 В 5
{9}
20 км 3/3 800 м
[Cu med, cong]
+29.2 +23.2 70 +39 +43 очень
душно
1012.9 1009.7
00 16.08 ЮВ 5
{10}
35 км н/о +30.1 +24.3 71 +42 +42 опасность
перегрева
1011.5 1008.4
03 16.08 ЮВ 4
{9}
20 км 6/6 700 м
[Cu hum Ac trans]
+29.8 +23.7 70 +41 +43 опасность
перегрева
1009.9 1006.8
06 16.08 В 4
{8}
40 км 10/10 600 м
[]
+27.7 +23.5 78 +38 +38 очень
душно
1010.6 1007.4 +26.5 +30.5
09 16.08 В 3
{6}
45 км 9/9 600 м
[]
+27.8 +23.6 78 +38 +38 очень
душно
1012.5 1009.3
12 16.08 В 4
{8}
50 км 8/8 300 м
[]
+27.3 +24.0 82 +38 +38 очень
душно
1012.0 1008.8
15 16.08 В 2
{6}
55 км 8/8 300 м
[]
+26.8 +24.5 87 +38 +38 очень
душно
1010.3 1007.1
18 16.08 В 3
{6}
20 км 6/4 570 м
[Cu hum Ac trans Ci fib]
+26.7 +24.2 86 +37 +37 очень
душно
1010.8 1007.6 +26.7 +28.0
21 16.08 В 5
{7}
45 км н/о +29.9 +25.4 77 +44 +44 опасность
перегрева
1012.1 1009.0
00 17.08 В 5
{7}
20 км 4/4 480 м
[Cu med, cong Ci fib]
+29.3 +24.6 76 +42 +48 опасность
перегрева
1010.9 1007.7
03 17.08 В 4
{6}
29 км н/о +29.7 +25.2 77 +43 +43 опасность
перегрева
1009.2 1006.1
06 17.08 В 3
{6}
40 км 9/9 300 м
[]
+27.3 +25.5 90 +40 +40 очень
душно
1010.5 1007.3 +26.6 +30.5 0.0
09 17.08 штиль 0
{1}
55 км н/о +26.2 +24.8 92 +37 +37 очень
душно
1011.7 1008.5
12 17.08 штиль 0
{1}
35 км н/о +25.5 +24.6 95 +36 +36 очень
душно
1011.8 1008.6 0.6
15 17.08 штиль 0
{1}
45 км 9/9 300 м
[]
+24.9 +24.4 97 +35 +35 очень
душно
1010.8 1007.6
18 17.08 штиль 0
{1}
20 км 4/4 600 м
[Cu med, cong Ci fib]
+24.7 +24.2 97 +34 +34 очень
душно
1011.8 1008.6 +24.7 +27.2
21 17.08 С 3
{4}
20 км 6/3 540 м
[Cu Sc Ci fib]
+29.6 +25.1 77 +43 +49 опасность
перегрева
1013.8 1010.6
00 18.08 СВ 3
{6}
20 км 6/3 570 м
[Cu med, cong Ci fib]
+30.5 +25.3 74 +44 +54 опасность
перегрева
1011.8 1008.7
03 18.08 С 3
{6}
50 км н/о +29.6 +24.2 73 +41 +41 опасность
перегрева
1010.0 1006.9
06 18.08 СВ 1
{3}
60 км н/о +26.8 +23.7 83 +37 +37 очень
душно
1010.9 1007.7 +24.7 +30.9
09 18.08 В 1
{2}
60 км н/о +25.3 +23.4 89 +34 +34 очень
душно
1012.5 1009.3
12 18.08 штиль 0
{1}
55 км н/о +24.1 +22.9 93 +32 +32 очень
душно
1012.5 1009.3
15 18.08 штиль 0
{1}
45 км н/о +23.9 +23.0 95 +32 +32 очень
душно
1010.7 1007.5
18 18.08 штиль 0
{2}
20 км 5/1 630 м
[Cu med, cong Ci fib]
+24.1 +23.4 96 +32 +32 очень
душно
1010.8 1007.6 +23.7 +26.8 0.2
21 18.08 В 5
{6}
20 км 4/3 540 м
[Cu med, cong Ci fib]
+29.7 +25.2 77 +43 +47 опасность
перегрева
1011.9 1008.8
00 19.08 В 5
{8}
60 км н/о +30.5 +25.1 73 +44 +44 опасность
перегрева
1010.4 1007.3
03 19.08 В 3
{6}
20 км 5/1 600 м
[Cu med, cong As trans]
+29.4 +24.3 74 +41 +45 опасность
перегрева
1009.0 1005.9
06 19.08 В 2
{3}
60 км 8/8 600 м
[]
+27.2 +24.1 83 +38 +38 очень
душно
1009.6 1006.4 +23.9 +31.1
09 19.08 штиль 0
{1}
50 км н/о +25.3 +23.9 92 +35 +35 очень
душно
1011.3 1008.1
12 19.08 Ю 1
{2}
55 км н/о +24.7 +23.3 92 +33 +33 очень
душно
1010.5 1007.3

 

Местоположение метеостанции Остров Увеа (Уоллис и Футуна): широта -13.24 долгота -176.19 высота над уровнем моря 27 м.

В архиве по умолчанию представлена погода на Острове Увеа за последнюю неделю. Архивные данные за месяц целиком и за предыдущие месяцы, начиная с января 2011 года, Вы можете получить, выбрав интересующий диапазон дат из раскрывающегося списка и нажав кнопку "Ввод!".


*Определитесь, кто Вы:
робот инопланетянин человек

Внимание! Время в таблицах - всемирное. Для получения местного времени необходимо прибавить поправку, которая равна 12 ч.

Смотрите также архив погоды в соседних городах и на ближайших метеорологических станциях:

Погода на Острове Футуна (Уоллис и Футуна) (240 км)
Погода на Острове Ниуафооу (Тонга) (266 км)
Погода на Станции Mount Talu (Самоа) (378 км)
Погода в Аэропорту Матаахо (Тонга) (398 км)
Погода на Станции Le Piu Tai (Самоа) (412 км)
Погода в Аэропорту Маота (Самоа) (429 км)
Погода на Острове Маноно (Самоа) (446 км)
Погода в Аэропорту Фалеоло (Самоа) (456 км)
Погода Фалеоло (Американское Самоа) (458 км)
Погода на Фалеоло восток (Самоа) (459 км)

Пояснения к столбцам:

Ветер - указаны скорость ветра в м/с - средняя за 10 мин, порывы в срок и между сроками (в фигурных скобках) и направление, откуда дует ветер: С - северный, СВ - северо-восточный, В - восточный, ЮВ - юго-восточный, Ю - южный, ЮЗ - юго-западный, З - западный, СЗ - северо-западный.
Видимость - горизонтальная дальность видимости в метрах или километрах. При видимости от 1 до 10 км при отсутствии осадков обычно наблюдается дымка, при ухудшении видимости до 1 км и менее - туман. В сухую погоду видимость может ухудшаться дымом, пылью или мглою.
Явления - указаны атмосферные явления, наблюдавшиеся в срок или в последний час перед сроком; фигурными скобками обозначены явления, наблюдавшиеся между сроками (за 1-3 часа до срока); квадратными скобками обозначены град или гололедные отложения с указанием их диаметра в мм.
Облачность - указаны через наклонную черту общая и нижняя облачность в баллах и высота нижней границы облаков в метрах; квадратными скобками обозначены формы облаков: Ci - перистые, Cs - перисто-слоистые, Cc - перисто-кучевые, Ac - высококучевые, As - высокослоистые, Sc - слоисто-кучевые, Ns - слоисто-дождевые, Cu - кучевые, Cb - кучево-дождевые. Подробнее классификацию облаков см. в Атласе облаков (PDF).
T - Температура воздуха - температура, измеренная на высоте 2 м над землей.
Td - Температура точки росы - температура, при понижении до которой содержащийся в воздухе водяной пар достигнет насыщения.
f - Относительная влажность воздуха - влажноcть воздуха, измеренная на высоте 2 м над землей.
Te - Эффективная температура - температура, которую ощущает одетый по сезону человек в тени. Характеристика душности погоды. При расчете учитывается влияние влажности воздуха и скорости ветра на теплоощущения человека.
Tes - Эффективная температура на солнце - температура, которую ощущает человек, с поправкой на солнечный нагрев. Характеристика знойности погоды. Зависит от высоты солнца над горизонтом, облачности и скорости ветра. Ночью, в пасмурную погоду, а также при ветре 12 м/с и более поправка равна нулю.
P - Атмосферное давление - приведенное к уровню моря атмосферное давление.
Po - Атмосферное давление - измеренное на уровне метеостанции атмосферное давление.
Tmin - Минимальная температура - минимум температуры воздуха на высоте 2 м над землей.
Tmax - Максимальная температура - максимум температуры воздуха на высоте 2 м над землей.
R - Количество осадков - Количество выпавших осадков за период времени, мм. При наведении курсора мыши на число - период времени, за который выпало указанное количество осадков.
R24 - Количество осадков - Количество выпавших осадков за 24 часа, мм.
S - Снежный покров - Высота снежного покрова, см. При наведении курсора мыши на число - состояние снежного покрова и степень покрытия местности в баллах.